�������C�����ː����j�^�v���󋵏��
Date,Time,Cs137(Bq/L),Cs134(Bq/L),�S��(Bq/L)
2017/01/26,00:00,0.64,0.045,ND
2017/01/26,00:10,0.63,0.038,ND
2017/01/26,00:20,0.64,0.030,ND
2017/01/26,00:30,0.65,0.030,ND
2017/01/26,00:40,0.61,0.034,ND
2017/01/26,00:50,0.63,ND,ND
2017/01/26,01:00,0.59,ND,ND
2017/01/26,01:10,0.54,0.026,ND
2017/01/26,01:20,0.52,0.031,ND
2017/01/26,01:30,0.56,ND,ND
2017/01/26,01:40,0.56,ND,ND
2017/01/26,01:50,0.52,0.032,ND
2017/01/26,02:00,0.54,0.032,ND
2017/01/26,02:10,0.55,0.028,ND
2017/01/26,02:20,0.53,0.029,ND
2017/01/26,02:30,0.52,0.030,ND
2017/01/26,02:40,0.52,0.043,ND
2017/01/26,02:50,0.52,0.036,ND
2017/01/26,03:00,0.52,0.035,ND
2017/01/26,03:10,0.52,0.031,ND
2017/01/26,03:20,0.53,0.036,ND
2017/01/26,03:30,0.51,0.041,ND
2017/01/26,03:40,0.53,0.037,ND
2017/01/26,03:50,0.55,0.031,ND
2017/01/26,04:00,0.56,0.033,ND
2017/01/26,04:10,0.56,0.032,ND
2017/01/26,04:20,0.56,0.026,ND
2017/01/26,04:30,0.59,ND,ND
2017/01/26,04:40,0.59,ND,10
2017/01/26,04:50,0.57,ND,ND
2017/01/26,05:00,0.56,ND,9.2
2017/01/26,05:10,0.57,ND,ND
2017/01/26,05:20,0.51,0.032,ND
2017/01/26,05:30,0.58,ND,ND
2017/01/26,05:40,0.57,ND,ND
2017/01/26,05:50,0.52,0.029,11
2017/01/26,06:00,0.52,0.032,10
2017/01/26,06:10,0.50,0.033,11
2017/01/26,06:20,0.52,0.036,11
2017/01/26,06:30,0.52,0.044,ND
2017/01/26,06:40,0.51,0.048,ND
2017/01/26,06:50,0.52,0.050,ND
2017/01/26,07:00,0.50,0.050,ND
2017/01/26,07:10,0.52,0.049,ND
2017/01/26,07:20,0.50,0.050,ND
2017/01/26,07:30,0.48,0.054,9.2
2017/01/26,07:40,0.48,0.064,ND
2017/01/26,07:50,0.50,0.057,ND
2017/01/26,08:00,0.51,0.062,ND
2017/01/26,08:10,0.52,0.061,ND
2017/01/26,08:20,0.52,0.056,8.8
2017/01/26,08:30,0.54,0.051,ND
2017/01/26,08:40,0.54,0.046,ND
2017/01/26,08:50,0.54,0.043,10
2017/01/26,09:00,0.56,0.036,10
2017/01/26,09:10,0.56,0.046,9.9
2017/01/26,09:20,0.56,0.053,ND
2017/01/26,09:30,0.58,0.037,ND
2017/01/26,09:40,0.58,0.043,8.8
2017/01/26,09:50,0.56,0.051,ND
2017/01/26,10:00,0.55,0.077,8.8
2017/01/26,10:10,0.53,0.061,9.3
2017/01/26,10:20,0.54,0.058,9.5
2017/01/26,10:30,0.51,0.076,9.2
2017/01/26,10:40,0.52,0.064,ND
2017/01/26,10:50,0.53,0.057,ND
2017/01/26,11:00,0.55,0.045,ND
2017/01/26,11:10,0.56,0.029,ND
2017/01/26,11:20,0.59,ND,ND
2017/01/26,11:30,0.59,ND,ND
2017/01/26,11:40,0.59,ND,10
2017/01/26,11:50,0.60,ND,9.7
2017/01/26,12:00,0.61,ND,8.8
2017/01/26,12:10,0.59,ND,ND
2017/01/26,12:20,0.58,ND,9.0
2017/01/26,12:30,0.56,ND,ND
2017/01/26,12:40,0.50,0.027,9.0
2017/01/26,12:50,0.48,0.032,9.7
2017/01/26,13:00,0.50,0.028,9.9
2017/01/26,13:10,0.49,0.033,8.9
2017/01/26,13:20,0.50,0.030,12
2017/01/26,13:30,0.50,0.036,13
2017/01/26,13:40,0.50,0.035,14
2017/01/26,13:50,0.52,0.030,11
2017/01/26,14:00,0.50,0.032,12
2017/01/26,14:10,0.51,0.028,12
2017/01/26,14:20,0.51,0.033,ND
2017/01/26,14:30,0.49,0.034,ND
2017/01/26,14:40,0.50,0.029,ND
2017/01/26,14:50,0.48,0.040,ND
2017/01/26,15:00,0.48,0.055,ND
2017/01/26,15:10,0.48,0.054,ND
2017/01/26,15:20,0.45,0.042,ND
2017/01/26,15:30,0.48,0.040,ND
2017/01/26,15:40,0.47,0.041,ND
2017/01/26,15:50,0.48,0.040,ND
2017/01/26,16:00,0.50,0.045,9.6
2017/01/26,16:10,0.50,0.046,8.9
2017/01/26,16:20,0.50,0.043,ND
2017/01/26,16:30,0.49,0.044,10
2017/01/26,16:40,0.51,0.040,11
2017/01/26,16:50,0.51,0.039,11
2017/01/26,17:00,0.47,0.045,ND
2017/01/26,17:10,0.50,0.038,8.9
2017/01/26,17:20,0.49,0.043,ND
2017/01/26,17:30,0.50,0.051,ND
2017/01/26,17:40,0.51,0.060,ND
2017/01/26,17:50,0.53,0.067,ND
2017/01/26,18:00,0.56,0.062,ND
2017/01/26,18:10,0.59,0.069,ND
2017/01/26,18:20,0.61,0.072,ND
2017/01/26,18:30,0.63,0.073,ND
2017/01/26,18:40,0.63,0.078,ND
2017/01/26,18:50,0.65,0.079,ND
2017/01/26,19:00,0.68,0.079,ND
2017/01/26,19:10,0.68,0.080,ND
2017/01/26,19:20,0.71,0.086,ND
2017/01/26,19:30,0.73,0.080,ND
2017/01/26,19:40,0.76,0.087,ND
2017/01/26,19:50,0.77,0.084,ND
2017/01/26,20:00,0.75,0.091,ND
2017/01/26,20:10,0.77,0.087,ND
2017/01/26,20:20,0.78,0.082,ND
2017/01/26,20:30,0.79,0.077,ND
2017/01/26,20:40,0.79,0.075,ND
2017/01/26,20:50,0.80,0.072,ND
2017/01/26,21:00,0.82,0.061,ND
2017/01/26,21:10,0.80,0.073,ND
2017/01/26,21:20,0.78,0.067,ND
2017/01/26,21:30,0.76,0.065,ND
2017/01/26,21:40,0.75,0.065,ND
2017/01/26,21:50,0.74,0.068,ND
2017/01/26,22:00,0.73,0.067,ND
2017/01/26,22:10,0.72,0.068,ND
2017/01/26,22:20,0.73,0.056,ND
2017/01/26,22:30,0.72,0.058,ND
2017/01/26,22:40,0.71,0.055,ND
2017/01/26,22:50,0.67,0.055,ND
2017/01/26,23:00,0.65,0.046,ND
2017/01/26,23:10,0.66,0.039,ND
2017/01/26,23:20,0.65,0.044,ND
2017/01/26,23:30,0.65,0.037,ND
2017/01/26,23:40,0.62,0.041,9.7
2017/01/26,23:50,0.61,0.031,10
